[[{"header":{"parameterUnit":"m.s-1","parameterCategory":1,"la1":30.2991,"la2":30.254,"lo1":-89.0895,"lo2":-89.0444,"dy":0.0017,"dx":0.0017,"nx":28,"ny":28,"refTime":"2025-09-14T09:00:00:Z","depth":0,"parameterNumber":2,"parameterNumberName":"U-component_of_WINDS"},"data":[0,0,0,0,0,0,0,0,0,0,0,0,0,0,0,0,0,0,0,0,0,0,0,0,0,0,0,0,0,0,0,0,0,0,0,0,0,0,0,0,0,0,0,0,0,0,0,0,0,0,0,0,0,0,0,0,0,0,1.1292,1.1293,0,1.1318,1.1318,1.1319,1.1238,1.1235,1.1233,1.123,1.1258,1.1261,1.1264,0,0,0,0,0,0,0,0,0,0,0,0,0,1.1172,1.1175,1.1292,1.1293,1.1293,1.1318,1.1318,1.1319,1.1238,1.1235,1.1232,1.1229,1.1257,1.126,1.1264,0,0,0,0,0,0,0,0,0,0,0,0,0,1.1214,1.1176,1.1292,1.1256,1.1253,1.1318,1.1318,1.1319,1.1239,1.1235,1.1231,1.1228,1.1255,1.126,1.1264,1.1367,0,0,1.1278,1.128,0,0,0,0,0,0,0,0,1.1212,1.1219,1.1261,1.1258,1.1255,1.1271,1.1286,1.1335,1.124,1.1244,1.123,1.1226,1.1265,1.1269,1.1282,1.1368,1.1369,1.1279,1.1281,1.1283,1.1285,0,0,0,0,0,0,0,1.1209,1.1217,1.1302,1.1261,1.1258,1.1238,1.124,1.1295,1.1275,1.1243,1.1237,1.1242,1.1263,1.1277,1.1282,1.1369,1.1278,1.1282,1.1285,1.1287,1.154,1.1544,0,0,0,0,0,0,1.1211,1.1215,1.1302,1.1303,1.1224,1.1243,1.1245,1.1269,1.1274,1.1271,1.1245,1.1238,1.1271,1.1276,1.1282,1.1402,1.1283,1.1288,1.129,1.1536,1.1541,1.1545,0,0,0,0,0,0,1.1209,1.1219,1.1301,1.1258,1.1266,1.1249,1.1277,1.1272,1.1286,1.1275,1.1271,1.1263,1.1269,1.1276,1.1346,1.1402,1.129,1.1294,1.1531,1.1537,1.1543,1.1642,0,0,0,0,0,0,1.1206,1.1219,1.1258,1.1259,1.1269,1.1364,1.1281,1.1275,1.1294,1.1286,1.1292,1.1289,1.1266,1.134,1.135,1.1406,1.1297,1.1526,1.1534,1.1541,1.1634,1.1651,1.1665,0,0,0,0,0,1.1202,1.1285,1.126,1.1271,1.1317,1.1368,1.1373,1.1345,1.1299,1.1338,1.1331,1.1289,1.1394,1.1347,1.1359,1.1417,1.1522,1.1532,1.154,1.1627,1.1648,1.1665,0,0,0,0,0,0,1.1292,1.1285,1.1257,1.1344,1.1357,1.1354,1.1402,1.1368,1.1395,1.1385,1.1349,1.1351,1.1428,1.1429,1.1378,1.1515,1.145,1.1462,1.1512,1.1532,1.1547,1.1545,1.1301,0,0,0,0,0,1.1322,1.1363,1.1355,1.1432,1.144,1.142,1.1441,1.1418,1.143,1.1436,1.1433,1.1447,1.1482,1.1507,1.1539,1.1633,1.1633,1.1679,1.1694,1.1707,1.1718,1.1767,1.1787,1.1574,1.1574,1.1574,0,0,1.1384,1.1385,1.1414,1.145,1.1457,1.1501,1.1425,1.1475,1.1507,1.1443,1.1509,1.1508,1.152,1.1603,1.1639,1.1606,1.1777,1.1719,1.1729,1.1733,1.1779,1.1799,1.1817,1.1581,1.1579,1.1578,0,0,1.152,1.1525,1.159,1.1598,1.161,1.1596,1.1612,1.1614,1.1611,1.1676,1.1629,1.1666,1.1729,1.174,1.1753,1.1892,1.1855,1.1904,1.1986,1.2035,1.2051,1.2066,1.2115,1.2133,1.1914,1.1915,1.1915,0,1.1596,1.166,1.1627,1.168,1.1697,1.164,1.1705,1.1716,1.1738,1.1751,1.1714,1.179,1.1795,1.1879,1.1913,1.1926,1.1942,1.1903,1.2051,1.2066,1.2079,1.2126,1.2144,1.192,1.192,1.1919,1.1919,0,1.1752,1.1797,1.1848,1.187,1.1893,1.1952,1.1928,1.1955,1.193,1.192,1.1987,1.199,1.2022,1.204,1.2016,1.212,1.2099,1.2058,1.1991,1.2106,1.2149,1.2167,1.1929,1.1927,1.1925,1.1924,0,0,1.1947,1.1949,1.1969,1.1978,1.1986,1.202,1.2076,1.2107,1.213,1.2147,1.2193,1.2247,1.2208,1.2223,1.22,1.2243,1.2352,1.2195,1.2195,1.2224,1.2466,1.2498,1.2519,1.2327,1.233,1.2333,1.2465,0,1.208,1.2175,1.2147,1.2243,1.2284,1.223,1.2279,1.2289,1.2281,1.2314,1.2305,1.2344,1.2289,1.2298,1.2338,1.233,1.24,1.232,1.2369,1.2371,1.2368,1.2542,1.2575,1.2701,1.2482,1.2485,1.2487,0,1.2249,1.2272,1.2372,1.2373,1.2389,1.2433,1.2458,1.2491,1.2501,1.2492,1.2509,1.2477,1.2531,1.2465,1.2539,1.2485,1.2503,1.2502,1.2506,1.251,1.2436,1.255,1.274,1.2759,1.2513,1.2511,1.2509,0,1.238,1.2436,1.2503,1.2512,1.2515,1.2548,1.255,1.2557,1.2577,1.2599,1.2611,1.264,1.2656,1.2678,1.2654,1.2608,1.2732,1.2663,1.2726,1.2727,1.2755,1.2753,1.295,1.2766,1.2766,1.2766,1.2765,0,1.2532,1.2596,1.2562,1.2603,1.2672,1.2639,1.2708,1.2704,1.2711,1.275,1.2705,1.2743,1.2709,1.2744,1.2725,1.2789,1.2797,1.2791,1.2785,1.2795,1.2796,1.2807,1.2797,1.2771,1.277,1.2769,1.2768,0,1.2691,1.2671,1.274,1.2737,1.2738,1.2789,1.2786,1.2824,1.2812,1.2862,1.2872,1.2853,1.2892,1.287,1.2909,1.2897,1.298,1.2962,1.2977,1.2972,1.3036,1.303,1.3246,1.3273,1.3072,1.3074,1.3076,0,1.279,1.2837,1.2839,1.2861,1.2867,1.2905,1.2925,1.2893,1.2916,1.2931,1.2967,1.3001,1.3027,1.3091,1.3081,1.3111,1.3094,1.3167,1.3098,1.3106,1.3094,1.3092,1.3096,1.3182,1.3184,1.3186,1.3187,0,1.2967,1.2954,1.2984,1.3011,1.3036,1.3056,1.3072,1.3093,1.3062,1.309,1.3128,1.3148,1.3188,1.3223,1.3248,1.325,1.3214,1.3209,1.3225,1.3236,1.3242,1.3239,1.3015,1.3204,1.3203,1.3201,1.3201,1.32,1.3098,1.3137,1.3144,1.3179,1.3188,1.3204,1.3239,1.3231,1.3262,1.3292,1.3272,1.3317,1.3325,1.3355,1.3362,1.3397,1.3367,1.3391,1.3397,1.3403,1.3412,1.3236,1.3402,1.3401,1.3401,1.34,1.34,0,1.3272,1.3274,1.3306,1.333,1.3357,1.332,1.3336,1.3361,1.3401,1.3412,1.3438,1.3482,1.3515,1.3508,1.3538,1.3567,1.3551,1.3576,1.3573,1.3574,1.3437,1.342,1.3588,1.3588,1.3588,1.3588,1.3588,1.3588,1.3366,1.343,1.3419,1.3486,1.3487,1.3531,1.3543,1.3557,1.3565,1.3616,1.3643,1.3638,1.3641,1.3671,1.3699,1.3696,1.3709,1.374,1.3731,1.3603,1.3584,1.3566,1.355,1.3743,1.3744,1.3866,1.3867,1.3868]},{"header":{"parameterUnit":"m.s-1","parameterCategory":1,"la1":30.2991,"la2":30.254,"lo1":-89.0895,"lo2":-89.0444,"dy":0.0017,"dx":0.0017,"nx":28,"ny":28,"refTime":"2025-09-14T09:00:00:Z","depth":0,"parameterNumber":3,"parameterNumberName":"V-component_of_WINDS"},"data":[0,0,0,0,0,0,0,0,0,0,0,0,0,0,0,0,0,0,0,0,0,0,0,0,0,0,0,0,0,0,0,0,0,0,0,0,0,0,0,0,0,0,0,0,0,0,0,0,0,0,0,0,0,0,0,0,0,0,-0.9267,-0.9268,0,-0.9304,-0.9305,-0.9305,-0.9354,-0.9355,-0.9355,-0.9356,-0.9394,-0.9394,-0.9394,0,0,0,0,0,0,0,0,0,0,0,0,0,-0.9238,-0.9238,-0.9267,-0.9268,-0.9268,-0.9304,-0.9305,-0.9305,-0.9354,-0.9355,-0.9356,-0.9357,-0.9394,-0.9394,-0.9394,0,0,0,0,0,0,0,0,0,0,0,0,0,-0.9261,-0.9239,-0.9267,-0.9297,-0.93,-0.9304,-0.9305,-0.9306,-0.9354,-0.9355,-0.9356,-0.9357,-0.9394,-0.9394,-0.9394,-0.9373,0,0,-0.9395,-0.9396,0,0,0,0,0,0,0,0,-0.9259,-0.9262,-0.9292,-0.9295,-0.9298,-0.9326,-0.9309,-0.9328,-0.9353,-0.9333,-0.9356,-0.9358,-0.937,-0.9372,-0.9377,-0.9375,-0.9376,-0.9396,-0.9396,-0.9396,-0.9396,0,0,0,0,0,0,0,-0.9258,-0.926,-0.9282,-0.9292,-0.9296,-0.9308,-0.9313,-0.9312,-0.9344,-0.9335,-0.9339,-0.9342,-0.9372,-0.9376,-0.9378,-0.9377,-0.9396,-0.9396,-0.9396,-0.9396,-0.936,-0.9359,0,0,0,0,0,0,-0.9252,-0.9259,-0.9281,-0.9283,-0.9281,-0.9308,-0.9313,-0.9316,-0.9345,-0.935,-0.9341,-0.9344,-0.9375,-0.9378,-0.938,-0.9357,-0.9396,-0.9396,-0.9396,-0.9361,-0.936,-0.9358,0,0,0,0,0,0,-0.9251,-0.9253,-0.9279,-0.9272,-0.9276,-0.9307,-0.931,-0.9316,-0.932,-0.9349,-0.9355,-0.934,-0.9376,-0.9379,-0.9374,-0.9359,-0.9396,-0.9397,-0.9362,-0.9361,-0.9359,-0.931,0,0,0,0,0,0,-0.925,-0.9253,-0.9244,-0.9271,-0.9276,-0.9273,-0.9309,-0.9316,-0.9321,-0.9325,-0.935,-0.9355,-0.9377,-0.9374,-0.9375,-0.936,-0.9397,-0.9364,-0.9362,-0.936,-0.9313,-0.9307,-0.9302,0,0,0,0,0,-0.9249,-0.9229,-0.9244,-0.9246,-0.9267,-0.9272,-0.9275,-0.9301,-0.9319,-0.9311,-0.9331,-0.9354,-0.936,-0.9373,-0.9374,-0.9359,-0.9365,-0.9362,-0.936,-0.9316,-0.9308,-0.9302,0,0,0,0,0,0,-0.9199,-0.9233,-0.925,-0.9238,-0.9252,-0.928,-0.9271,-0.9292,-0.9301,-0.9305,-0.9337,-0.9343,-0.9334,-0.9347,-0.9359,-0.9341,-0.9366,-0.9364,-0.9332,-0.9325,-0.932,-0.9316,-0.9397,0,0,0,0,0,-0.9187,-0.9188,-0.9218,-0.9205,-0.9211,-0.924,-0.9243,-0.9262,-0.9278,-0.9284,-0.9302,-0.9316,-0.9322,-0.9325,-0.9331,-0.9316,-0.9322,-0.9307,-0.9301,-0.9296,-0.9293,-0.9287,-0.928,-0.9349,-0.9349,-0.935,0,0,-0.9161,-0.918,-0.9178,-0.9195,-0.9208,-0.9209,-0.9244,-0.9243,-0.9244,-0.9284,-0.928,-0.9295,-0.9313,-0.9303,-0.9299,-0.9313,-0.9275,-0.9292,-0.9288,-0.9288,-0.9283,-0.9276,-0.9271,-0.9348,-0.9348,-0.9348,0,0,-0.9115,-0.9129,-0.912,-0.9133,-0.9152,-0.9172,-0.9169,-0.9195,-0.9206,-0.9204,-0.9233,-0.9235,-0.9244,-0.9256,-0.9263,-0.9223,-0.9244,-0.9224,-0.9192,-0.9186,-0.918,-0.9176,-0.9161,-0.9156,-0.9221,-0.9221,-0.9221,0,-0.908,-0.9082,-0.9112,-0.911,-0.9117,-0.9153,-0.9144,-0.9155,-0.9176,-0.9179,-0.9195,-0.9207,-0.9221,-0.9215,-0.9205,-0.921,-0.9209,-0.9221,-0.9179,-0.9174,-0.9171,-0.9157,-0.9152,-0.9218,-0.9219,-0.9219,-0.9219,0,-0.9039,-0.9041,-0.9031,-0.905,-0.9056,-0.905,-0.908,-0.9082,-0.9102,-0.912,-0.9117,-0.9136,-0.9148,-0.9148,-0.9167,-0.9145,-0.9153,-0.9173,-0.9199,-0.9161,-0.9149,-0.9144,-0.9215,-0.9216,-0.9216,-0.9217,0,0,-0.8961,-0.8998,-0.8994,-0.9003,-0.9028,-0.903,-0.9027,-0.9038,-0.9039,-0.9053,-0.9051,-0.9058,-0.9077,-0.9085,-0.9106,-0.91,-0.9068,-0.9122,-0.9123,-0.9111,-0.9045,-0.9029,-0.9023,-0.9083,-0.9082,-0.9082,-0.9043,0,-0.8919,-0.8914,-0.8942,-0.8931,-0.8932,-0.8968,-0.8965,-0.898,-0.8998,-0.9002,-0.9022,-0.9026,-0.9051,-0.9057,-0.9053,-0.9072,-0.9055,-0.9076,-0.9081,-0.9081,-0.9075,-0.9016,-0.8999,-0.8962,-0.9039,-0.9038,-0.9038,0,-0.8869,-0.888,-0.8868,-0.8895,-0.8897,-0.8893,-0.8907,-0.8911,-0.8929,-0.8942,-0.8952,-0.8976,-0.8975,-0.9001,-0.9,-0.9014,-0.9018,-0.9029,-0.9028,-0.9028,-0.9056,-0.9015,-0.8951,-0.8945,-0.9031,-0.9031,-0.9032,0,-0.8812,-0.8824,-0.8819,-0.8827,-0.8857,-0.8854,-0.8867,-0.8887,-0.8892,-0.8904,-0.8908,-0.892,-0.8926,-0.8935,-0.8962,-0.8978,-0.8958,-0.8986,-0.8969,-0.8968,-0.8962,-0.8962,-0.8897,-0.8966,-0.8966,-0.8966,-0.8966,0,-0.8762,-0.8753,-0.8795,-0.8791,-0.8783,-0.8816,-0.8807,-0.8823,-0.8841,-0.8842,-0.8874,-0.8874,-0.891,-0.8915,-0.8936,-0.8932,-0.8935,-0.8946,-0.8951,-0.8942,-0.8941,-0.8945,-0.8948,-0.8965,-0.8965,-0.8965,-0.8965,0,-0.8696,-0.8724,-0.8721,-0.8751,-0.8758,-0.8751,-0.8777,-0.8775,-0.8795,-0.8796,-0.8798,-0.883,-0.8837,-0.8865,-0.8879,-0.8893,-0.8883,-0.8894,-0.8876,-0.888,-0.8861,-0.8862,-0.8795,-0.8788,-0.8862,-0.8861,-0.8861,0,-0.8662,-0.8656,-0.8686,-0.8689,-0.87,-0.8705,-0.8711,-0.8743,-0.8749,-0.877,-0.8766,-0.8776,-0.8785,-0.8795,-0.8819,-0.883,-0.8842,-0.8818,-0.8844,-0.8835,-0.8841,-0.8841,-0.8841,-0.8812,-0.8811,-0.881,-0.8809,0,-0.8598,-0.8612,-0.8619,-0.8632,-0.8639,-0.865,-0.8663,-0.8664,-0.87,-0.8704,-0.8712,-0.872,-0.8735,-0.8744,-0.8759,-0.8773,-0.8797,-0.8801,-0.8798,-0.8788,-0.8778,-0.8783,-0.886,-0.8802,-0.8803,-0.8804,-0.8804,-0.8804,-0.8546,-0.8543,-0.8564,-0.8572,-0.8586,-0.8598,-0.8598,-0.8619,-0.8626,-0.864,-0.8659,-0.8665,-0.8685,-0.8708,-0.872,-0.8725,-0.8739,-0.8733,-0.8732,-0.873,-0.8726,-0.8778,-0.8728,-0.8728,-0.8729,-0.8729,-0.8729,0,-0.8484,-0.8499,-0.8506,-0.8524,-0.853,-0.8553,-0.857,-0.8573,-0.8578,-0.8595,-0.8604,-0.8613,-0.8623,-0.8649,-0.8661,-0.866,-0.8672,-0.8662,-0.8662,-0.8665,-0.8713,-0.8715,-0.8653,-0.8653,-0.8653,-0.8653,-0.8653,-0.8653,-0.8451,-0.8448,-0.8465,-0.8468,-0.8484,-0.849,-0.8497,-0.8509,-0.8523,-0.8532,-0.854,-0.8557,-0.8578,-0.8592,-0.8602,-0.861,-0.8613,-0.8599,-0.861,-0.8654,-0.8662,-0.8668,-0.867,-0.86,-0.86,-0.8562,-0.8562,-0.8561]}]]